EW7405 Weather Reports


Display with metric or nautical units.
time (UTC)temp
F
wind
direction
speed
MPH
gust
MPH
rain 1hr
in
rain 24hr
in
rain mn
in
humidity
%
barometer
mb
20260504150108 45 267 0.0 1.0 0.03 0.04 0.04 93 1007.2
20260504100111 33 38 0.0 0.0 0.00 0.01 0.00 92 1008.0
20260504081552 31 38 0.0 0.0 0.00 0.03 0.00 92 1008.2
20260504080109 30 38 0.0 0.0 0.00 0.03 0.00 92 1008.1
20260504044532 29 38 0.0 0.0 0.00 0.08 0.00 91 1008.4
20260504043033 29 34 0.0 0.0 0.00 0.08 0.00 91 1008.5
20260504041529 29 36 0.0 0.0 0.00 0.08 0.00 91 1008.5
20260504040046 29 44 0.0 0.0 0.00 0.08 0.00 91 1008.5
20260504034526 29 44 0.0 0.0 0.00 0.12 0.08 91 1008.3
20260504033025 29 44 0.0 0.0 0.00 0.12 0.08 90 1008.3
20260504031525 29 44 0.0 0.0 0.00 0.12 0.08 90 1008.3
20260504030025 29 44 0.0 0.0 0.00 0.12 0.08 90 1008.2
20260504024523 30 44 0.0 1.0 0.00 0.14 0.08 89 1008.3
20260504023021 30 17 0.0 0.0 0.00 0.14 0.08 90 1008.4
20260504021521 30 17 0.0 0.0 0.00 0.14 0.08 89 1008.5
20260504020021 31 17 0.0 0.0 0.00 0.14 0.08 88 1008.4
20260504014523 31 17 0.0 0.0 0.00 0.17 0.08 88 1008.4
20260504013014 32 15 0.0 0.0 0.00 0.17 0.08 88 1008.3
20260504011510 33 15 0.0 0.0 0.00 0.17 0.08 87 1008.2
20260504010009 34 15 0.0 0.0 0.00 0.17 0.08 87 1007.9
20260504004504 35 259 0.0 0.0 0.00 0.24 0.08 85 1007.8
20260504003003 36 258 0.0 0.0 0.00 0.24 0.08 83 1007.7
20260504001502 38 257 0.0 0.0 0.00 0.24 0.08 80 1007.7
20260504000001 39 257 0.0 0.0 0.00 0.40 0.08 78 1007.6
20260503234600 40 257 0.0 0.0 0.00 0.40 0.08 74 1007.5
20260503234505 40 257 0.0 0.0 0.00 0.40 0.08 73 1007.6
20260503233059 41 257 0.0 0.0 0.00 0.40 0.08 70 1007.5
20260503231559 42 248 0.0 0.0 0.00 0.40 0.08 64 1007.5
20260503230103 42 287 0.0 1.0 0.00 0.40 0.08 65 1007.5
20260503224558 42 230 0.0 0.0 0.00 0.41 0.08 64 1007.5
20260503223058 42 273 0.0 3.0 0.00 0.41 0.08 67 1007.4
20260503221558 42 231 0.0 1.0 0.00 0.41 0.08 66 1007.3
20260503220057 42 205 0.0 0.0 0.00 0.41 0.08 62 1007.4
20260503214556 42 226 0.0 2.0 0.00 0.41 0.08 59 1007.3
20260503213056 42 242 0.0 8.0 0.00 0.41 0.08 61 1007.4
20260503211557 42 123 0.0 5.0 0.00 0.41 0.08 66 1007.4
20260503210055 42 273 0.0 3.0 0.00 0.41 0.08 70 1007.3
20260503204555 43 263 0.0 11.0 0.00 0.41 0.08 60 1007.2
20260503203053 44 229 0.0 2.0 0.00 0.41 0.08 57 1007.0
20260503201553 44 296 0.0 1.0 0.00 0.41 0.08 62 1007.1
20260503200058 42 275 0.0 10.0 0.00 0.41 0.08 62 1007.2
20260503194552 43 105 0.0 5.0 0.00 0.41 0.08 63 1007.4
20260503193059 44 269 0.0 6.0 0.00 0.41 0.08 60 1007.3
20260503191603 44 110 0.0 3.0 0.00 0.41 0.08 59 1007.2
20260503190050 44 265 0.0 4.0 0.00 0.41 0.08 56 1007.2
20260503184550 43 201 0.0 10.0 0.00 0.42 0.08 56 1007.2
20260503183107 42 11 0.0 7.0 0.00 0.42 0.08 59 1007.5
20260503181617 43 281 0.0 9.0 0.00 0.42 0.08 63 1007.2
20260503180048 44 56 0.0 7.0 0.00 0.42 0.08 54 1007.2
20260503174548 44 90 0.0 7.0 0.00 0.42 0.08 54 1007.1
20260503173054 45 275 0.0 8.0 0.00 0.42 0.08 54 1007.2
20260503171544 44 355 0.0 4.0 0.00 0.42 0.08 58 1007.2